Location: Hope
(40.9110°N, 74.9680°W)
Time: 12:36:43
(UTC-05:00)

Tiangong - Visible Passes

Search period start: 08 December 2022 00:00
Search period end: 18 December 2022 00:00
Orbit: 386 x 392 km, 41.5° (Epoch: 08 December)

Date Brightness Start Highest point End Pass type
(mag) Time Alt. Az. Time Alt. Az. Time Alt. Az.
08 Dec -2.1 16:56:55 10° W 17:00:07 82° N 17:03:18 10° E visible
08 Dec -0.8 18:33:56 10° W 18:36:30 38° SW 18:36:30 38° SW visible
09 Dec -1.7 17:35:38 10° W 17:38:47 60° SSW 17:41:25 14° ESE visible
09 Dec 1.3 19:13:21 10° WSW 19:13:45 12° WSW 19:13:45 12° WSW visible
10 Dec 0.0 18:14:33 10° W 18:17:13 24° SSW 18:18:48 17° SSE visible
11 Dec -0.7 17:16:02 10° W 17:19:02 37° SSW 17:22:00 10° SE visible
12 Dec 0.9 17:55:27 10° WSW 17:57:14 14° SSW 17:59:01 10° S visible
